Home   Weather   Oakville   Past weeks

Flag for Canada Past Weather in Oakville, Ontario, Canada — Yesterday and Last 2 Weeks

Now
41 °F

Quite cool.


Feels Like: 31 °F
Forecast: N/A
Wind: 22 mph from Northeast

Location: Burlington Piers

Current Time: Apr 30, 2017 at 7:04:19 pm

Latest Report: Apr 30, 2017 at 6:00 pm


Visibility: N/A

Pressure: 30.02 "Hg

Humidity: 80%

Dew Point: 35 °F

Location of OakvilleLocation

Past Weather in Oakville — Graph

°F

Oakville Temperature Yesterday

Maximum temperature yesterday: 57 °F (at 12:00 am)
Minimum temperature yesterday: 45 °F (at 11:00 am)
Average temperature yesterday: 51 °F

High & Low Weather Summary for the Past Weeks

 TemperatureHumidityPressure
High71 °F (Apr 16, 3:00 pm)100% (Apr 20, 12:00 pm)30.46 "Hg (Apr 20, 12:00 pm)
Low36 °F (Apr 18, 5:00 am)24% (Apr 23, 5:00 pm)29.54 "Hg (Apr 27, 5:00 pm)
Average48 °F73%29.99 "Hg
* Reported Apr 15 5:00 pm — Apr 30 5:00 pm, Oakville, Weather by CustomWeather, © 2017

Note: Actual official high and low records may vary slightly from our data, if they occured in-between our weather recording intervals... More about our weather records

Advertising

Oakville Weather History for the Previous 24 Hours

Scroll right to see more
 ConditionsComfort  
Time TempWeatherWind HumidityBarometerVisibility
5:00 pm
Sun, Apr 30
40 °FQuite cool.22 mph83%30.02 "HgN/A
4:00 pm40 °FChilly.22 mph84%30.04 "HgN/A
3:00 pm40 °FChilly.23 mph84%30.08 "HgN/A
2:00 pm40 °FChilly.26 mph81%30.11 "HgN/A
1:00 pm40 °FChilly.26 mph79%30.15 "HgN/A
12:00 pm40 °FChilly.28 mph78%30.16 "HgN/A
11:00 am40 °FChilly.28 mph80%30.17 "HgN/A
10:00 am41 °FQuite cool.25 mph82%30.20 "HgN/A
9:00 am40 °FQuite cool.28 mph86%30.21 "HgN/A
8:00 am41 °FQuite cool.26 mph73%30.23 "HgN/A
7:00 am41 °FQuite cool.28 mph78%30.23 "HgN/A
6:00 am42 °FQuite cool.15 mph73%30.32 "HgN/A
5:00 am43 °FQuite cool.25 mph71%30.20 "HgN/A
4:00 am45 °FQuite cool.21 mph71%30.21 "HgN/A
3:00 am45 °FCool.14 mph70%30.19 "HgN/A
2:00 am45 °FCool.6 mph75%30.23 "HgN/A
1:00 am45 °FCool.6 mph71%30.26 "HgN/A
12:00 am48 °FCool.7 mph49%30.27 "HgN/A
11:00 pm
Sat, Apr 29
48 °FCool.6 mph47%30.27 "HgN/A
10:00 pm47 °FCool.13 mph50%30.27 "HgN/A
9:00 pm47 °FCool.2 mph73%30.25 "HgN/A
8:00 pm49 °FCool.12 mph66%30.18 "HgN/A
7:00 pm48 °FCool.12 mph71%30.18 "HgN/A
Weather by CustomWeather, © 2017

See weather overviewHow to use our weather pages